| time (UTC) | temp F | wind direction | speed knots | gust knots | rain 1hr in | rain 24hr in | rain mn in | humidity % | barometer mb |
| 20260504023821 | 58 | 196 | 3.5 | 6.1 | 0.00 | 0.00 | 0.00 | 37 | 1000.4 |
| 20260504022820 | 58 | 227 | 3.5 | 6.1 | 0.00 | 0.00 | 0.00 | 36 | 1000.5 |
| 20260504021820 | 59 | 213 | 2.6 | 4.3 | 0.00 | 0.00 | 0.00 | 36 | 1000.7 |
| 20260504020822 | 59 | 236 | 3.5 | 6.1 | 0.00 | 0.00 | 0.00 | 34 | 1000.8 |
| 20260504015821 | 59 | 226 | 3.5 | 5.2 | 0.00 | 0.00 | 0.00 | 34 | 1000.9 |
| 20260504014820 | 59 | 241 | 1.7 | 3.5 | 0.00 | 0.00 | 0.00 | 33 | 1001.0 |
| 20260504012823 | 60 | 232 | 0.9 | 2.6 | 0.00 | 0.00 | 0.00 | 35 | 1001.4 |
| 20260504011820 | 61 | 215 | 2.6 | 6.1 | 0.00 | 0.00 | 0.00 | 32 | 1001.5 |
| 20260504010820 | 61 | 285 | 0.9 | 2.6 | 0.00 | 0.00 | 0.00 | 33 | 1001.6 |
| 20260504005820 | 61 | 286 | 0.0 | 0.9 | 0.00 | 0.00 | 0.00 | 34 | 1001.7 |
| 20260504004819 | 62 | 286 | 0.0 | 0.9 | 0.00 | 0.00 | 0.00 | 33 | 1001.8 |
| 20260504003819 | 62 | 286 | 0.9 | 3.5 | 0.00 | 0.00 | 0.00 | 32 | 1001.9 |
| 20260504002820 | 63 | 273 | 1.7 | 4.3 | 0.00 | 0.00 | 0.00 | 32 | 1002.0 |
| 20260503235819 | 64 | 284 | 0.9 | 5.2 | 0.00 | 0.00 | 0.00 | 30 | 1002.3 |
| 20260503232814 | 65 | 37 | 1.7 | 7.8 | 0.00 | 0.00 | 0.00 | 29 | 1002.4 |
| 20260503231815 | 64 | 331 | 1.7 | 6.1 | 0.00 | 0.00 | 0.00 | 30 | 1002.5 |
| 20260503230814 | 64 | 265 | 2.6 | 10.4 | 0.00 | 0.00 | 0.00 | 30 | 1002.6 |
| 20260503225813 | 65 | 53 | 1.7 | 6.1 | 0.00 | 0.00 | 0.00 | 30 | 1002.7 |
| 20260503224814 | 65 | 22 | 1.7 | 7.8 | 0.00 | 0.00 | 0.00 | 30 | 1003.0 |
| 20260503223814 | 64 | 329 | 1.7 | 6.1 | 0.00 | 0.00 | 0.00 | 33 | 1003.2 |
| 20260503222813 | 65 | 17 | 1.7 | 6.1 | 0.00 | 0.00 | 0.00 | 29 | 1003.2 |
| 20260503221808 | 65 | 240 | 2.6 | 7.0 | 0.00 | 0.00 | 0.00 | 31 | 1003.4 |
| 20260503220807 | 65 | 344 | 2.6 | 9.6 | 0.00 | 0.00 | 0.00 | 29 | 1003.3 |
| 20260503215808 | 65 | 306 | 2.6 | 13.0 | 0.00 | 0.00 | 0.00 | 29 | 1003.4 |
| 20260503214809 | 65 | 12 | 3.5 | 8.7 | 0.00 | 0.00 | 0.00 | 29 | 1003.3 |
| 20260503213809 | 66 | 5 | 3.5 | 12.2 | 0.00 | 0.00 | 0.00 | 29 | 1003.4 |
| 20260503212808 | 66 | 286 | 2.6 | 10.4 | 0.00 | 0.00 | 0.00 | 30 | 1003.3 |
| 20260503211808 | 67 | 134 | 2.6 | 7.0 | 0.00 | 0.00 | 0.00 | 30 | 1003.5 |
| 20260503210805 | 67 | 5 | 2.6 | 9.6 | 0.00 | 0.00 | 0.00 | 30 | 1003.6 |
| 20260503205805 | 67 | 350 | 2.6 | 8.7 | 0.00 | 0.00 | 0.00 | 29 | 1003.7 |
| 20260503204806 | 66 | 321 | 2.6 | 8.7 | 0.00 | 0.00 | 0.00 | 31 | 1003.9 |
| 20260503202805 | 66 | 310 | 2.6 | 7.0 | 0.00 | 0.00 | 0.00 | 32 | 1004.1 |
| 20260503201806 | 67 | 5 | 2.6 | 8.7 | 0.00 | 0.00 | 0.00 | 30 | 1004.1 |
| 20260503200804 | 66 | 323 | 2.6 | 12.2 | 0.00 | 0.00 | 0.00 | 28 | 1004.2 |
| 20260503195804 | 67 | 297 | 2.6 | 7.0 | 0.00 | 0.00 | 0.00 | 30 | 1004.3 |
| 20260503194803 | 66 | 5 | 2.6 | 7.8 | 0.00 | 0.00 | 0.00 | 31 | 1004.3 |
| 20260503193803 | 66 | 312 | 2.6 | 7.0 | 0.00 | 0.00 | 0.00 | 34 | 1004.6 |
| 20260503192804 | 65 | 44 | 2.6 | 8.7 | 0.00 | 0.00 | 0.00 | 32 | 1004.8 |
| 20260503191805 | 65 | 171 | 2.6 | 9.6 | 0.00 | 0.00 | 0.00 | 29 | 1004.9 |
| 20260503184808 | 64 | 335 | 2.6 | 8.7 | 0.00 | 0.00 | 0.00 | 31 | 1005.0 |
| 20260503183757 | 64 | 22 | 2.6 | 8.7 | 0.00 | 0.00 | 0.00 | 31 | 1005.1 |
| 20260503182758 | 64 | 346 | 2.6 | 7.8 | 0.00 | 0.00 | 0.00 | 30 | 1005.3 |
| 20260503180758 | 65 | 277 | 2.6 | 7.8 | 0.00 | 0.00 | 0.00 | 28 | 1005.3 |
| 20260503175757 | 63 | 309 | 3.5 | 12.2 | 0.00 | 0.00 | 0.00 | 24 | 1005.6 |
| 20260503174758 | 63 | 355 | 2.6 | 6.1 | 0.00 | 0.00 | 0.00 | 26 | 1005.7 |
| 20260503171756 | 63 | 0 | 2.6 | 8.7 | 0.00 | 0.00 | 0.00 | 23 | 1005.8 |
| 20260503170754 | 63 | 338 | 2.6 | 8.7 | 0.00 | 0.00 | 0.00 | 28 | 1006.1 |
| 20260503150746 | 59 | 80 | 2.6 | 7.8 | 0.00 | 0.00 | 0.00 | 55 | 1006.1 |
| 20260503080736 | 46 | 182 | 0.0 | 0.0 | 0.00 | 0.00 | 0.00 | 75 | 1005.5 |
| 20260503071734 | 49 | 182 | 0.0 | 0.0 | 0.00 | 0.00 | 0.00 | 72 | 1006.0 |
| 20260503070735 | 51 | 182 | 0.0 | 1.7 | 0.00 | 0.00 | 0.00 | 70 | 1006.0 |
| 20260503054729 | 50 | 184 | 2.6 | 4.3 | 0.00 | 0.00 | 0.00 | 75 | 1006.8 |
| 20260503053728 | 50 | 200 | 1.7 | 2.6 | 0.00 | 0.00 | 0.00 | 75 | 1006.9 |
| 20260503052728 | 51 | 200 | 1.7 | 3.5 | 0.00 | 0.00 | 0.00 | 75 | 1006.9 |
| 20260503051729 | 51 | 201 | 0.9 | 2.6 | 0.00 | 0.00 | 0.00 | 75 | 1007.1 |
| 20260503050734 | 51 | 201 | 0.9 | 3.5 | 0.00 | 0.00 | 0.00 | 75 | 1007.1 |
| 20260503045729 | 51 | 210 | 0.9 | 2.6 | 0.00 | 0.00 | 0.00 | 76 | 1007.2 |
| 20260503043728 | 51 | 242 | 0.0 | 1.7 | 0.00 | 0.00 | 0.00 | 77 | 1007.6 |
| 20260503042729 | 51 | 242 | 0.0 | 2.6 | 0.00 | 0.00 | 0.00 | 76 | 1007.7 |
| 20260503041728 | 51 | 233 | 0.0 | 1.7 | 0.00 | 0.00 | 0.00 | 75 | 1007.8 |
| 20260503040727 | 51 | 233 | 0.0 | 1.7 | 0.00 | 0.00 | 0.00 | 75 | 1007.8 |
| 20260503033728 | 52 | 71 | 0.0 | 0.9 | 0.00 | 0.00 | 0.00 | 76 | 1007.9 |
| 20260503032728 | 52 | 67 | 0.0 | 1.7 | 0.00 | 0.00 | 0.00 | 75 | 1008.3 |
| 20260503031728 | 52 | 67 | 0.0 | 1.7 | 0.00 | 0.00 | 0.00 | 75 | 1008.4 |
| 20260503030726 | 53 | 67 | 0.9 | 2.6 | 0.00 | 0.00 | 0.00 | 73 | 1008.5 |
| 20260503025726 | 53 | 67 | 0.0 | 1.7 | 0.00 | 0.00 | 0.00 | 71 | 1008.9 |
| 20260503024723 | 54 | 59 | 0.9 | 3.5 | 0.00 | 0.00 | 0.00 | 68 | 1009.1 |